[[{"header":{"parameterUnit":"m.s-1","parameterCategory":1,"la1":30.2991,"la2":30.254,"lo1":-89.0895,"lo2":-89.0444,"dy":0.0017,"dx":0.0017,"nx":28,"ny":28,"refTime":"2023-07-22T03:00:00:Z","depth":0,"parameterNumber":2,"parameterNumberName":"U-component_of_WINDS"},"data":[0,0,0,0,0,0,0,0,0,0,0,0,0,0,0,0,0,0,0,0,0,0,0,0,0,0,0,0,0,0,0,0,0,0,0,0,0,0,0,0,0,0,0,0,0,0,0,0,0,0,0,0,0,0,0,0,0,0,2.9674,2.9674,0,2.965,2.965,2.9649,2.952,2.9517,2.9514,2.9511,2.9488,2.949,2.9492,0,0,0,0,0,0,0,0,0,0,0,0,0,2.961,2.9612,2.9674,2.9674,2.9674,2.965,2.965,2.9649,2.9521,2.9517,2.9513,2.951,2.9487,2.949,2.9493,0,0,0,0,0,0,0,0,0,0,0,0,0,2.9618,2.9613,2.9675,2.9607,2.96,2.965,2.965,2.9649,2.9521,2.9517,2.9512,2.9508,2.9486,2.949,2.9493,2.9606,0,0,2.9503,2.9505,0,0,0,0,0,0,0,0,2.9617,2.962,2.9617,2.9611,2.9604,2.9583,2.9618,2.9635,2.9523,2.9552,2.9511,2.9506,2.9524,2.9524,2.9529,2.9605,2.9604,2.9504,2.9506,2.9507,2.9508,0,0,0,0,0,0,0,2.9617,2.962,2.9665,2.9617,2.961,2.9578,2.9574,2.9621,2.9564,2.9549,2.9539,2.9538,2.9519,2.9526,2.9528,2.9604,2.9503,2.9506,2.9509,2.951,2.9767,2.9772,0,0,0,0,0,0,2.9626,2.9621,2.9665,2.9664,2.96,2.9583,2.9578,2.9595,2.9563,2.9554,2.9542,2.9532,2.9523,2.9524,2.9526,2.9652,2.9507,2.951,2.9512,2.9763,2.9769,2.9774,0,0,0,0,0,0,2.9625,2.9631,2.9666,2.964,2.9642,2.9589,2.9609,2.9597,2.9603,2.9558,2.9547,2.9559,2.9519,2.9522,2.9586,2.965,2.9512,2.9515,2.9757,2.9765,2.9771,2.9909,0,0,0,0,0,0,2.9624,2.9632,2.9674,2.9642,2.9644,2.9727,2.9613,2.96,2.9609,2.9596,2.9571,2.9563,2.9516,2.9582,2.959,2.9652,2.9517,2.9751,2.976,2.9769,2.9899,2.992,2.9939,0,0,0,0,0,2.9622,2.9715,2.9677,2.9683,2.9696,2.9731,2.9732,2.9675,2.9615,2.9657,2.9627,2.9564,2.9643,2.959,2.9597,2.9662,2.9747,2.9758,2.9768,2.989,2.9916,2.9938,0,0,0,0,0,0,2.9758,2.971,2.9667,2.9752,2.9747,2.9709,2.976,2.9706,2.9717,2.9705,2.9635,2.963,2.9704,2.969,2.9632,2.9768,2.9684,2.9697,2.9773,2.9798,2.9818,2.9818,2.952,0,0,0,0,0,2.9798,2.983,2.9787,2.9867,2.9866,2.9814,2.9827,2.9784,2.9775,2.9772,2.9747,2.9742,2.9765,2.9782,2.9801,2.9898,2.9888,2.9946,2.9966,2.9983,2.9993,3.0039,3.0063,2.9809,2.9809,2.9809,0,0,2.988,2.9858,2.9883,2.9893,2.9883,2.9917,2.9813,2.9854,2.9878,2.9779,2.9836,2.9819,2.9808,2.9888,2.9922,2.9878,3.0062,2.9997,3.001,3.0011,3.0053,3.0077,3.0098,2.9817,2.9815,2.9814,0,0,3.0047,3.0036,3.0098,3.009,3.0076,3.0041,3.0056,3.0027,3.001,3.0067,2.9992,3.0021,3.0064,3.0057,3.006,3.0224,3.0164,3.0233,3.0336,3.0381,3.0401,3.0418,3.0472,3.0493,3.0244,3.0245,3.0245,0,3.0151,3.0198,3.0137,3.0182,3.0187,3.0099,3.016,3.0157,3.0151,3.0156,3.0108,3.0157,3.0144,3.0219,3.0259,3.0266,3.0279,3.0233,3.0403,3.042,3.0435,3.0486,3.0507,3.0253,3.0252,3.0251,3.025,0,3.0325,3.0359,3.0412,3.0405,3.0418,3.0472,3.0418,3.0438,3.0394,3.0364,3.0422,3.0403,3.0415,3.0431,3.039,3.05,3.0472,3.0416,3.0328,3.0468,3.0514,3.0533,3.0264,3.0261,3.0259,3.0257,0,0,3.0573,3.0532,3.0552,3.0546,3.0524,3.0549,3.0599,3.061,3.0626,3.0626,3.0663,3.0701,3.0647,3.065,3.0608,3.0649,3.0774,3.0586,3.0584,3.0617,3.0889,3.0928,3.0952,3.0736,3.074,3.0743,3.0888,0,3.0728,3.0808,3.0754,3.0842,3.0871,3.0788,3.083,3.0822,3.0795,3.0816,3.0788,3.0813,3.0743,3.0743,3.0781,3.0751,3.0827,3.0741,3.0768,3.077,3.0768,3.0977,3.1019,3.1157,3.0906,3.0909,3.0912,0,3.0919,3.0923,3.1014,3.0983,3.0993,3.1033,3.1036,3.1058,3.1046,3.1024,3.1028,3.0974,3.102,3.0938,3.0998,3.0941,3.095,3.0937,3.0941,3.0937,3.0846,3.0974,3.12,3.1219,3.094,3.0938,3.0936,0,3.1084,3.1114,3.1171,3.117,3.1137,3.1165,3.1153,3.1137,3.1146,3.115,3.1154,3.1166,3.117,3.118,3.113,3.1076,3.1196,3.1111,3.1176,3.1177,3.1201,3.1199,3.1426,3.1216,3.1216,3.1215,3.1215,0,3.1259,3.1316,3.1244,3.1278,3.134,3.1278,3.1341,3.1321,3.1307,3.1335,3.1266,3.1295,3.123,3.1252,3.1215,3.1268,3.1272,3.1254,3.1242,3.1257,3.1259,3.1258,3.1245,3.1221,3.122,3.1219,3.1218,0,3.1452,3.1406,3.1461,3.1425,3.1418,3.1464,3.1433,3.1463,3.1433,3.147,3.1475,3.1427,3.1449,3.1402,3.1419,3.1393,3.1467,3.1443,3.147,3.1461,3.1527,3.152,3.1758,3.1784,3.1562,3.1564,3.1566,0,3.1563,3.1605,3.1573,3.1586,3.1577,3.1601,3.1608,3.1551,3.1562,3.155,3.1582,3.1598,3.1607,3.1646,3.1613,3.1624,3.1597,3.168,3.1598,3.161,3.1592,3.1588,3.159,3.1695,3.1697,3.17,3.1702,0,3.1765,3.174,3.1753,3.1759,3.177,3.1772,3.1769,3.1785,3.1723,3.1739,3.1759,3.1767,3.1782,3.1798,3.1802,3.1789,3.1734,3.1728,3.1743,3.1756,3.1767,3.1757,3.151,3.1722,3.172,3.1718,3.1717,3.1716,3.1917,3.1948,3.193,3.1946,3.1938,3.1937,3.1962,3.1934,3.195,3.1956,3.1922,3.195,3.1936,3.1935,3.1928,3.1949,3.1911,3.1934,3.1939,3.1944,3.1952,3.1769,3.195,3.1949,3.1949,3.1948,3.1948,0,3.211,3.2094,3.211,3.2107,3.212,3.2068,3.2062,3.2076,3.2101,3.2092,3.2102,3.2125,3.214,3.2108,3.2118,3.214,3.2115,3.2144,3.2139,3.2137,3.1988,3.1971,3.2164,3.2164,3.2164,3.2164,3.2164,3.2164,3.2212,3.2261,3.2234,3.2278,3.2262,3.2286,3.2287,3.2285,3.2277,3.2305,3.2316,3.2295,3.2277,3.2284,3.2296,3.2286,3.2291,3.2328,3.2309,3.2169,3.2148,3.2127,3.2111,3.233,3.2331,3.2455,3.2456,3.2457]},{"header":{"parameterUnit":"m.s-1","parameterCategory":1,"la1":30.2991,"la2":30.254,"lo1":-89.0895,"lo2":-89.0444,"dy":0.0017,"dx":0.0017,"nx":28,"ny":28,"refTime":"2023-07-22T03:00:00:Z","depth":0,"parameterNumber":3,"parameterNumberName":"V-component_of_WINDS"},"data":[0,0,0,0,0,0,0,0,0,0,0,0,0,0,0,0,0,0,0,0,0,0,0,0,0,0,0,0,0,0,0,0,0,0,0,0,0,0,0,0,0,0,0,0,0,0,0,0,0,0,0,0,0,0,0,0,0,0,4.1862,4.1861,0,4.1841,4.1841,4.184,4.1749,4.1746,4.1744,4.1742,4.1722,4.1723,4.1724,0,0,0,0,0,0,0,0,0,0,0,0,0,4.1823,4.1824,4.1862,4.1861,4.1861,4.1841,4.1841,4.184,4.1749,4.1746,4.1744,4.1741,4.1721,4.1723,4.1725,0,0,0,0,0,0,0,0,0,0,0,0,0,4.1825,4.1825,4.1862,4.1813,4.1809,4.1841,4.184,4.184,4.175,4.1746,4.1743,4.174,4.1721,4.1723,4.1725,4.1802,0,0,4.1731,4.1732,0,0,0,0,0,0,0,0,4.1825,4.1826,4.182,4.1816,4.1811,4.1794,4.1819,4.1828,4.175,4.1772,4.1742,4.1739,4.1748,4.1748,4.1751,4.1801,4.1801,4.1732,4.1733,4.1734,4.1734,0,0,0,0,0,0,0,4.1825,4.1827,4.1853,4.1821,4.1815,4.1793,4.1789,4.182,4.1778,4.177,4.1763,4.1762,4.1745,4.1749,4.175,4.18,4.1731,4.1733,4.1735,4.1736,4.1912,4.1915,0,0,0,0,0,0,4.1832,4.1827,4.1854,4.1853,4.181,4.1796,4.1792,4.1803,4.1778,4.1771,4.1765,4.1758,4.1747,4.1748,4.1749,4.1836,4.1734,4.1736,4.1737,4.1909,4.1913,4.1916,0,0,0,0,0,0,4.1831,4.1835,4.1855,4.1838,4.1839,4.18,4.1813,4.1804,4.1808,4.1774,4.1766,4.1776,4.1745,4.1746,4.1789,4.1834,4.1737,4.1739,4.1905,4.191,4.1914,4.2012,0,0,0,0,0,0,4.183,4.1835,4.1864,4.184,4.184,4.1896,4.1815,4.1806,4.1812,4.1803,4.1783,4.1776,4.1742,4.1787,4.1792,4.1835,4.174,4.19,4.1907,4.1913,4.2005,4.202,4.2033,0,0,0,0,0,4.1829,4.1893,4.1866,4.187,4.1875,4.1898,4.1899,4.1858,4.1816,4.1844,4.1823,4.1777,4.183,4.1792,4.1797,4.1842,4.1897,4.1905,4.1912,4.1998,4.2017,4.2033,0,0,0,0,0,0,4.1923,4.1889,4.1858,4.1916,4.1911,4.1883,4.1917,4.1879,4.1886,4.1877,4.1826,4.1823,4.1873,4.1862,4.1821,4.1915,4.1856,4.1865,4.1919,4.1937,4.1951,4.1951,4.1742,0,0,0,0,0,4.1951,4.1972,4.1941,4.1995,4.1994,4.1957,4.1965,4.1934,4.1927,4.1924,4.1905,4.19,4.1915,4.1926,4.1938,4.2004,4.1998,4.2038,4.2052,4.2064,4.2071,4.2103,4.212,4.1941,4.1941,4.1941,0,0,4.2007,4.1991,4.2008,4.2013,4.2005,4.2028,4.1955,4.1983,4.1999,4.1928,4.1967,4.1954,4.1945,4.2,4.2023,4.1992,4.212,4.2074,4.2083,4.2084,4.2113,4.213,4.2145,4.1946,4.1946,4.1945,0,0,4.2121,4.2112,4.2155,4.2149,4.2138,4.2113,4.2124,4.2103,4.2091,4.2129,4.2076,4.2096,4.2124,4.2119,4.212,4.2234,4.2192,4.224,4.2313,4.2345,4.2359,4.2371,4.2409,4.2424,4.2248,4.2249,4.2249,0,4.2192,4.2224,4.2182,4.2212,4.2216,4.2154,4.2196,4.2193,4.2188,4.2191,4.2158,4.219,4.218,4.2232,4.226,4.2264,4.2274,4.224,4.2361,4.2372,4.2383,4.2419,4.2434,4.2254,4.2254,4.2253,4.2252,0,4.2311,4.2335,4.2371,4.2366,4.2374,4.2411,4.2374,4.2387,4.2357,4.2336,4.2376,4.2362,4.237,4.2381,4.2351,4.2429,4.2409,4.237,4.2308,4.2406,4.2439,4.2453,4.2262,4.226,4.2259,4.2257,0,0,4.248,4.2453,4.2466,4.2463,4.2448,4.2465,4.25,4.2507,4.2518,4.2518,4.2544,4.257,4.2533,4.2534,4.2504,4.2534,4.2622,4.2489,4.2488,4.2512,4.2704,4.2732,4.2748,4.2596,4.2598,4.26,4.2704,0,4.2586,4.2641,4.2605,4.2666,4.2686,4.263,4.2659,4.2654,4.2636,4.2651,4.2631,4.2649,4.2599,4.26,4.2626,4.2606,4.2659,4.2598,4.2618,4.262,4.2618,4.2766,4.2795,4.2893,4.2716,4.2719,4.272,0,4.2716,4.272,4.2784,4.2764,4.2771,4.2799,4.2802,4.2818,4.281,4.2795,4.2798,4.2761,4.2794,4.2737,4.278,4.2739,4.2746,4.2737,4.274,4.2737,4.2673,4.2764,4.2923,4.2937,4.2741,4.2739,4.2737,0,4.2828,4.2851,4.2891,4.2891,4.287,4.289,4.2883,4.2872,4.2879,4.2883,4.2887,4.2895,4.2899,4.2906,4.2873,4.2835,4.292,4.286,4.2907,4.2908,4.2924,4.2923,4.3084,4.2935,4.2935,4.2934,4.2934,0,4.2948,4.2988,4.2941,4.2965,4.3009,4.2968,4.3012,4.2999,4.2991,4.3011,4.2965,4.2985,4.2941,4.2958,4.2932,4.2971,4.2974,4.2962,4.2954,4.2964,4.2965,4.2964,4.2956,4.2938,4.2937,4.2937,4.2936,0,4.3079,4.3049,4.3089,4.3067,4.3062,4.3095,4.3076,4.3098,4.3078,4.3105,4.3109,4.3078,4.3094,4.3063,4.3076,4.3059,4.3112,4.3096,4.3114,4.3108,4.3155,4.315,4.3318,4.3338,4.318,4.3182,4.3183,0,4.3155,4.3185,4.3166,4.3176,4.3171,4.3189,4.3196,4.3158,4.3167,4.3161,4.3184,4.3197,4.3205,4.3235,4.3213,4.3223,4.3204,4.3262,4.3205,4.3214,4.3201,4.3198,4.32,4.3273,4.3275,4.3276,4.3278,0,4.3293,4.3277,4.3288,4.3295,4.3304,4.3308,4.3308,4.332,4.3279,4.3292,4.3308,4.3315,4.3328,4.3341,4.3346,4.3339,4.3301,4.3297,4.3307,4.3316,4.3324,4.3318,4.3143,4.3292,4.3291,4.329,4.3289,4.3288,4.3396,4.342,4.341,4.3424,4.342,4.3422,4.3441,4.3424,4.3437,4.3444,4.3422,4.3444,4.3436,4.3439,4.3436,4.3452,4.3426,4.3442,4.3446,4.345,4.3456,4.3325,4.3454,4.3453,4.3453,4.3452,4.3452,0,4.3529,4.352,4.3534,4.3535,4.3547,4.3513,4.3511,4.3523,4.3542,4.3539,4.3548,4.3567,4.358,4.3561,4.357,4.3588,4.3571,4.3591,4.3588,4.3586,4.348,4.3468,4.3605,4.3604,4.3604,4.3604,4.3604,4.3604,4.3599,4.3635,4.3619,4.3654,4.3645,4.3666,4.3668,4.3669,4.3666,4.3689,4.3699,4.3687,4.3677,4.3686,4.3696,4.369,4.3695,4.3721,4.3709,4.3609,4.3594,4.3579,4.3568,4.3723,4.3723,4.3813,4.3813,4.3814]}]]